Regional Weather Roundup
Issued by NWS

Home | Current Version | Previous Version | Text Only | Print | Product List | Glossary Off
Versions: 1 2 3 4 5 6 7 8 9 10 11 12 13 14 15 16 17 18 19 20 21 22 23 24 25 26 27 28 29 30 31 32 33 34 35 36 37 38 39 40 41 42 43 44 45 46 47 48 49 50

000
ASUS45 KBOU 170407
RWRCO

WEATHER ROUNDUP FOR COLORADO
NATIONAL WEATHER SERVICE DENVER/BOULDER CO
1000 PM MDT TUE SEP 16 2014

NOTE: "FAIR" INDICATES FEW OR NO CLOUDS BELOW 12000 FEET WITH NO
SIGNIFICANT WEATHER AND/OR OBSTRUCTIONS TO VISIBILITY.

COZ001>005-013-030-031-170500-
...NORTHWEST COLORADO...

CITY           SKY/WX    TMP DP  RH WIND       PRES   REMARKS
CRAIG          MOCLDY    54  43  66 W3        30.20R
HAYDEN         PTCLDY    61  30  31 SE3       30.22S
MEEKER         CLEAR     54  42  64 NE5       30.22R
MOUNT WERNER   NOT AVBL
STEAMBOAT SPGS PTCLDY    57  37  48 CALM      30.25R
WALDEN         PTCLDY    43  32  65 SE8       30.34S
$$

COZ006>008-011-170500-
...WEST CENTRAL VALLEYS...

CITY           SKY/WX    TMP DP  RH WIND       PRES   REMARKS
GRAND JUNCTION CLEAR     65  42  43 E5        30.07S
MONTROSE       CLEAR     64  43  46 SE8       30.18R
EAGLE          CLEAR     61  41  48 E3        30.25S
RIFLE          CLEAR     62  43  49 S7        30.15R
DELTA          CLEAR     69  41  36 CALM      30.12R
NUCLA          CLEAR     66  41  39 E13       30.20S
$$

COZ017>023-064>068-170500-
...SOUTHWEST COLORADO...

CITY           SKY/WX    TMP DP  RH WIND       PRES   REMARKS
DURANGO        PTCLDY    61  45  55 NE6       30.25R
CORTEZ         CLOUDY    63  48  58 CALM      30.19R
PAGOSA SPRINGS PTCLDY    58  41  53 CALM      30.34S
TELLURIDE      NOT AVBL
WOLF CREEK PAS PTCLDY    45  37  76 SW18      30.61S
$$

COZ009-010-012-014-032>034-037-058>063-170500-
...CENTRAL COLORADO...

CITY           SKY/WX    TMP DP  RH WIND       PRES   REMARKS
ASPEN          CLEAR     54  36  50 SW9         N/A
BUENA VISTA    MOCLDY    60  29  31 W5        30.33R
COPPER MTN     CLEAR     54  30  40 S6        30.64S
BERTHOUD PASS  FAIR      43  41  93 NW8       30.67F
COTTONWOOD PAS PTCLDY    61  27  27 CALM      30.47S
GUNNISON       CLEAR     55  37  50 CALM      30.33R
KREMMLING      CLEAR     50  34  53 CALM      30.32R
LEADVILLE      PTCLDY    45  29  53 E8        30.46F
SALIDA         PTCLDY    64  35  33 CALM      30.35S
SUNLIGHT       CLEAR     55  34  44 NW3       30.55S
WILKERSON PASS NOT AVBL
$$

COZ069>075-170500-
...SAN LUIS VALLEY/SANGRE DE CRISTO MOUNTAINS...

CITY           SKY/WX    TMP DP  RH WIND       PRES   REMARKS
ALAMOSA        CLEAR     57  43  59 S9        30.28S
LA VETA PASS   NOT AVBL
SAGUACHE       PTCLDY    59  32  36 N6        30.31R
$$

COZ035-036-038>040-170500-
...NORTHERN COLORADO FRONT RANGE...

CITY           SKY/WX    TMP DP  RH WIND       PRES   REMARKS
DENVER INTL AP PTCLDY    63  39  41 S16       30.12S
DMNS CITY PARK   N/A     69  39  33 S2        30.13R
AURORA         PTCLDY    67  37  33 S12       30.16R
FRONT RANGE AP CLEAR     63  41  45 S7        30.14F
ERIE MUNI ARPT CLEAR     60  45  58 CALM      30.11S
BOULDER MUN AP CLEAR     64  45  48 W5        30.12F
CENTENNIAL     PTCLDY    64  40  41 S9        30.17S
BROOMFIELD     PTCLDY    68  41  37 VRB3      30.15S
FORT COLLINS   CLEAR     63  43  48 S8        30.11S
LONGMONT       CLEAR     61  47  60 W7        30.13S
$$

COZ041-046-047-076>085-087-088-170500-
...PIKES PEAK/PALMER DIVIDE AND SOUTHERN FOOTHILLS...

CITY           SKY/WX    TMP DP  RH WIND       PRES   REMARKS
COLO. SPRINGS  PTCLDY    67  38  34 NE8       30.21S
A. F. ACADEMY  PTCLDY    56  42  58 N9        30.23S
ELLICOTT       NOT AVBL
FALCON         PTCLDY    61  33  35 NE6       30.26F
FORT CARSON    CLOUDY    71  40  33 W8        30.17F
LIMON          PTCLDY    61  39  44 CALM      30.15S
MONUMENT HILL  PTCLDY    59  34  38 S9        30.26S
TRINIDAD       CLEAR     68  48  48 W16       30.15F
$$

COZ042>045-048>051-090-091-170500-
...NORTHEAST COLORADO...

CITY           SKY/WX    TMP DP  RH WIND       PRES   REMARKS
GREELEY ARPT   CLEAR     57  39  51 NE5       30.09R
AKRON          CLEAR     61  43  51 S8        30.08S
BURLINGTON     CLEAR     65  47  52 NE3       30.06F
WRAY           CLEAR     63  49  61 CALM      30.03S
STERLING       CLEAR     59  52  77 SW7       30.02S
HOLYOKE        CLEAR     59  52  77 S5        30.02S
FORT MORGAN    CLEAR     61  42  49 S3        30.08R
$$

COZ086-089-092>099-170500-
...SOUTHEAST COLORADO...

CITY           SKY/WX    TMP DP  RH WIND       PRES   REMARKS
PUEBLO         PTCLDY    66  38  35 N5        30.08R
LA JUNTA       CLEAR     72  42  34 S5        30.04S
LAMAR          CLEAR     66  55  67 NW5       30.00R
SPRINGFIELD      N/A     63  58  83 S10       30.08F
$$


USA.gov is the U.S. government's official web portal to all federal, state and local government web resources and services.